Back to catalog

STARLINK-2713

AliveCommunicationsVLEO
NORAD 48602·PAYLOAD·🇺🇸 United States

Launched May 15, 2021 from Cape Canaveral Space Force Station

Loading…

Next Passes (next 24 hours)

TLE

FreshSource: CelesTrak SupGP

Epoch: Sep 14, 2026, 21:03 UTC

1 48602C 21041BB  26257.87756944 -.00019482  00000+0 -62651-3 0  2575
2 48602  53.1585 313.3937 0001108  76.8016 152.6179 15.31711492    12

Track STARLINK-2713 in real time with AllMySat

Download on the App Store